Tracking 25710 objects as of 6-Jul-2022
HD Live streaming from Space Station
objects crossing your sky now

STARLINK-2624

Track STARLINK-2624 now!
10-day predictions
STARLINK-2624 is classified as:


NORAD ID: 48358
Int'l Code: 2021-038F
Perigee: 553.0 km
Apogee: 555.6 km
Inclination: 53.1 °
Period: 95.6 minutes
Semi major axis: 6925 km
RCS: Unknown
Launch date: May 4, 2021
Source: United States (US)
Launch site: AIR FORCE EASTERN TEST RANGE (AFETR)
aabbcc
Your satellite tracking list
Your tracking list is empty




NASA's NSSDC Master Catalog

Two Line Element Set (TLE):
1 48358U 21038F   22187.18678633 -.00004726  00000-0 -29840-3 0  9991
2 48358  53.0556 268.3444 0001841  52.0464 308.0691 15.06418870 65266
Source of the keplerian elements: AFSPC